QPF
0.02 0.00 0.00 0.00 0.00 0.00 0.00 0.02 0.03 0.04 0.00 0.00 0.00 0.00 0.00 0.00 0.00 0.00 0.00 0.00 0.00 0.00 0.01 0.00 0.03 0.03 0.00 0.00 0.00 0.00 0.00 0.01 0.03 0.00 0.00 0.00 0.00 0.00 0.00 0.00 0.02 0.00 0.00
0.02 0.00 0.00 0.00 0.00 0.00 0.00 0.02 0.02 0.06 0.01 0.00 0.00 0.00 0.00 0.00 0.00 0.00 0.00 0.00 0.00 0.00 0.00 0.00 0.00 0.01 0.00 0.00 0.00 0.00 0.00 0.00 0.00 0.00 0.00 0.00 0.00 0.00 0.00 0.00 0.00 0.00 0.00
0.01 0.00 0.00 0.00 0.00 0.00 0.00 0.00 0.00 0.01 0.00 0.00 0.00 0.00 0.00 0.00 0.00 0.00 0.00 0.00 0.00 0.00 0.00 0.00 0.00 0.00 0.00 0.00 0.03 0.00 0.00 0.00 0.00 0.00 0.01 0.00 0.00 0.00 0.00 0.00 0.01 0.00 0.01
0.00 0.00 0.00 0.00 0.00 0.00 0.00 0.00 0.00 0.00 0.00 0.01 0.00 0.00 0.00 0.04 0.07 0.03 0.01 0.00 0.00 0.00 0.00 0.00 0.00 0.00 0.00 0.00 0.03 0.00 0.00 0.00 0.00 0.00 0.00 0.00 0.00 0.00 0.00 0.00 0.01 0.00 0.00
0.00 0.00 0.00 0.00 0.00 0.00 0.00 0.00 0.00 0.00 0.00 0.00 0.00 0.00 0.02 0.08 0.05 0.01 0.02 0.00 0.00 0.00 0.00 0.00 0.00 0.00 0.00 0.00 0.00 0.00 0.00 0.00 0.00 0.01 0.01 0.00 0.00 0.00 0.00 0.00 0.00 0.00 0.00
0.00 0.00 0.00 0.00 0.00 0.00 0.00 0.00 0.00 0.00 0.00 0.00 0.00 0.00 0.03 0.06 0.03 0.04 0.05 0.01 0.00 0.00 0.00 0.00 0.00 0.00 0.00 0.00 0.00 0.00 0.00 0.00 0.00 0.00 0.00 0.00 0.00 0.00 0.00 0.00 0.02 0.00 0.00
0.01 0.00 0.00 0.00 0.00 0.00 0.00 0.00 0.00 0.00 0.00 0.00 0.02 0.11 0.06 0.01 0.07 0.16 0.13 0.01 0.00 0.00 0.00 0.00 0.00 0.00 0.00 0.00 0.00 0.00 0.00 0.00 0.00 0.00 0.00 0.00 0.00 0.00 0.00 0.00 0.03 0.00 0.00
0.02 0.00 0.00 0.00 0.00 0.00 0.00 0.00 0.00 0.00 0.00 0.00 0.00 0.09 0.14 0.06 0.00 0.00 0.01 0.00 0.08 0.04 0.00 0.00 0.00 0.00 0.00 0.00 0.00 0.00 0.00 0.00 0.00 0.00 0.00 0.00 0.00 0.00 0.00 0.00 0.00 0.00 0.00
0.00 0.00 0.00 0.00 0.00 0.00 0.00 0.00 0.00 0.02 0.00 0.00 0.01 0.01 0.01 0.01 0.00 0.00 0.02 0.00 0.02 0.06 0.00 0.00 0.00 0.00 0.00 0.00 0.00 0.00 0.00 0.00 0.00 0.00 0.00 0.00 0.00 0.00 0.00 0.00 0.00 0.00 0.01
0.00 0.01 0.05 0.08 0.04 0.03 0.01 0.01 0.02 0.03 0.00 0.00 0.05 0.01 0.00 0.00 0.01 0.01 0.00 0.00 0.00 0.01 0.01 0.00 0.00 0.00 0.00 0.00 0.00 0.00 0.00 0.00 0.00 0.01 0.00 0.00 0.00 0.00 0.00 0.00 0.00 0.00 0.00
0.00 0.07 0.20 0.13 0.02 0.09 0.14 0.05 0.02 0.02 0.00 0.01 0.02 0.01 0.00 0.00 0.04 0.04 0.01 0.02 0.00 0.00 0.00 0.00 0.00 0.00 0.00 0.00 0.00 0.00 0.00 0.00 0.00 0.00 0.00 0.00 0.00 0.00 0.00 0.00 0.00 0.00 0.00
0.01 0.06 0.13 0.09 0.00 0.00 0.04 0.15 0.05 0.02 0.01 0.00 0.01 0.03 0.00 0.04 0.08 0.05 0.03 0.00 0.00 0.00 0.00 0.00 0.00 0.00 0.00 0.00 0.00 0.00 0.00 0.00 0.00 0.00 0.00 0.00 0.00 0.00 0.00 0.00 0.00 0.00 0.00
0.00 0.01 0.03 0.02 0.00 0.00 0.00 0.05 0.15 0.10 0.05 0.07 0.06 0.08 0.05 0.07 0.04 0.02 0.08 0.01 0.00 0.00 0.00 0.00 0.00 0.00 0.00 0.00 0.00 0.00 0.00 0.00 0.00 0.00 0.01 0.02 0.00 0.00 0.00 0.00 0.00 0.00 0.00
0.00 0.00 0.01 0.00 0.00 0.00 0.00 0.01 0.08 0.15 0.09 0.10 0.10 0.08 0.11 0.10 0.07 0.07 0.06 0.05 0.00 0.00 0.01 0.03 0.02 0.00 0.01 0.00 0.02 0.01 0.00 0.00 0.01 0.00 0.00 0.01 0.00 0.00 0.00 0.00 0.00 0.00 0.00
0.00 0.00 0.01 0.00 0.00 0.00 0.02 0.05 0.06 0.11 0.10 0.03 0.06 0.05 0.11 0.08 0.05 0.06 0.02 0.00 0.01 0.04 0.11 0.07 0.05 0.08 0.06 0.00 0.02 0.01 0.00 0.00 0.00 0.00 0.00 0.02 0.00 0.00 0.00 0.00 0.00 0.00 0.02
0.00 0.00 0.00 0.00 0.00 0.00 0.02 0.02 0.03 0.05 0.06 0.03 0.09 0.15 0.08 0.04 0.06 0.03 0.02 0.00 0.00 0.00 0.03 0.04 0.06 0.05 0.09 0.03 0.01 0.00 0.00 0.00 0.00 0.00 0.00 0.02 0.03 0.01 0.01 0.01 0.00 0.00 0.01
0.00 0.00 0.00 0.00 0.00 0.00 0.00 0.00 0.00 0.03 0.05 0.01 0.08 0.15 0.14 0.09 0.09 0.02 0.00 0.00 0.00 0.02 0.00 0.01 0.03 0.05 0.04 0.04 0.02 0.00 0.00 0.00 0.00 0.00 0.00 0.00 0.00 0.02 0.03 0.04 0.03 0.02 0.03
0.00 0.00 0.00 0.00 0.00 0.00 0.00 0.00 0.00 0.00 0.00 0.00 0.01 0.01 0.01 0.02 0.04 0.03 0.00 0.01 0.00 0.01 0.00 0.02 0.04 0.06 0.05 0.05 0.02 0.00 0.00 0.00 0.00 0.00 0.00 0.00 0.00 0.01 0.01 0.02 0.04 0.07 0.08
0.00 0.00 0.00 0.00 0.00 0.00 0.00 0.00 0.00 0.00 0.00 0.00 0.01 0.04 0.03 0.01 0.00 0.02 0.00 0.00 0.01 0.01 0.05 0.04 0.03 0.03 0.06 0.02 0.00 0.00 0.00 0.00 0.00 0.00 0.00 0.00 0.00 0.00 0.01 0.03 0.08 0.13 0.11
0.00 0.00 0.00 0.00 0.00 0.00 0.00 0.00 0.00 0.00 0.00 0.00 0.01 0.07 0.12 0.09 0.01 0.00 0.00 0.00 0.00 0.00 0.02 0.10 0.10 0.07 0.02 0.02 0.01 0.00 0.00 0.00 0.00 0.00 0.00 0.01 0.03 0.03 0.10 0.03 0.09 0.10 0.09
0.00 0.00 0.00 0.00 0.00 0.00 0.00 0.00 0.00 0.00 0.00 0.00 0.01 0.05 0.14 0.23 0.10 0.01 0.02 0.05 0.01 0.00 0.00 0.14 0.13 0.15 0.04 0.04 0.05 0.02 0.01 0.00 0.00 0.00 0.01 0.05 0.21 0.10 0.09 0.13 0.10 0.08 0.19
0.00 0.00 0.00 0.00 0.00 0.00 0.00 0.00 0.00 0.00 0.00 0.00 0.01 0.02 0.03 0.19 0.29 0.15 0.04 0.04 0.06 0.04 0.04 0.06 0.08 0.07 0.02 0.04 0.08 0.10 0.06 0.02 0.01 0.01 0.09 0.08 0.11 0.15 0.16 0.13 0.16 0.15 0.17
0.00 0.00 0.00 0.00 0.00 0.00 0.01 0.00 0.00 0.01 0.03 0.01 0.01 0.01 0.02 0.08 0.24 0.23 0.09 0.01 0.01 0.01 0.01 0.05 0.10 0.08 0.07 0.12 0.16 0.14 0.09 0.06 0.05 0.07 0.18 0.10 0.05 0.02 0.04 0.05 0.05 0.05 0.05
0.00 0.00 0.00 0.00 0.00 0.00 0.00 0.00 0.01 0.07 0.08 0.07 0.03 0.01 0.00 0.00 0.05 0.20 0.16 0.02 0.01 0.01 0.02 0.03 0.03 0.07 0.15 0.14 0.21 0.18 0.07 0.07 0.04 0.06 0.10 0.12 0.05 0.00 0.00 0.00 0.01 0.05 0.08
0.00 0.00 0.00 0.00 0.00 0.00 0.00 0.01 0.00 0.05 0.05 0.01 0.05 0.04 0.00 0.00 0.00 0.01 0.05 0.04 0.01 0.04 0.11 0.16 0.20 0.21 0.16 0.14 0.19 0.19 0.13 0.07 0.03 0.01 0.01 0.05 0.03 0.00 0.00 0.00 0.02 0.07 0.12
0.00 0.00 0.00 0.00 0.00 0.00 0.00 0.00 0.01 0.03 0.02 0.00 0.05 0.01 0.00 0.01 0.00 0.00 0.00 0.00 0.00 0.00 0.02 0.05 0.18 0.18 0.20 0.22 0.20 0.09 0.02 0.04 0.08 0.06 0.03 0.04 0.04 0.00 0.00 0.00 0.00 0.06 0.12
MSLP
1008.52 1009.38 1009.93 1010.23 1010.69 1011.24 1011.62 1012.02 1012.38 1012.67 1013.07 1013.28 1013.54 1013.77 1013.95 1014.11 1014.24 1014.33 1014.44 1014.61 1014.76 1014.96 1014.92 1015.06 1015.44 1015.50 1015.58 1015.79 1015.96 1016.06 1016.15 1016.26 1016.27 1016.47 1016.59 1016.81 1017.03 1017.16 1017.26 1017.38 1017.41 1017.80 1018.11
1008.38 1009.35 1010.02 1010.46 1010.83 1011.14 1011.60 1011.99 1012.36 1012.85 1013.11 1013.40 1013.57 1013.78 1014.06 1014.30 1014.49 1014.64 1014.76 1014.91 1014.98 1015.05 1015.09 1015.20 1015.57 1015.68 1015.79 1015.94 1016.16 1016.26 1016.38 1016.40 1016.48 1016.69 1016.82 1017.03 1017.29 1017.45 1017.49 1017.23 1017.69 1018.07 1018.34
1008.23 1009.56 1010.30 1010.67 1010.90 1011.33 1011.69 1012.01 1012.38 1012.82 1013.23 1013.54 1013.75 1013.98 1014.23 1014.43 1014.69 1014.86 1014.99 1015.01 1015.15 1015.18 1015.25 1015.52 1015.67 1015.79 1015.96 1016.14 1016.33 1016.46 1016.51 1016.54 1016.72 1016.93 1016.82 1016.83 1017.46 1017.68 1017.75 1017.81 1018.06 1018.27 1018.46
1008.09 1009.36 1010.32 1011.01 1011.18 1011.47 1011.76 1012.08 1012.45 1012.85 1013.33 1013.73 1013.97 1014.13 1014.32 1014.58 1014.84 1015.06 1015.10 1015.19 1015.26 1015.30 1015.40 1015.63 1015.79 1015.92 1016.13 1016.33 1016.49 1016.56 1016.54 1016.63 1016.78 1016.98 1017.00 1016.76 1017.17 1017.87 1018.06 1018.12 1018.31 1018.51 1018.77
1007.59 1008.84 1010.55 1011.00 1011.37 1011.66 1011.96 1012.19 1012.52 1012.94 1013.32 1013.84 1014.15 1014.27 1014.47 1014.62 1014.81 1015.02 1015.21 1015.34 1015.37 1015.48 1015.56 1015.70 1015.84 1015.98 1016.25 1016.49 1016.59 1016.62 1016.48 1016.59 1016.75 1016.97 1016.76 1016.72 1017.41 1018.04 1018.19 1018.34 1018.55 1018.72 1018.84
1008.61 1008.39 1010.33 1010.88 1011.33 1011.81 1012.12 1012.46 1012.73 1013.07 1013.36 1013.71 1014.14 1014.37 1014.38 1014.60 1014.81 1015.03 1015.39 1015.38 1015.55 1015.60 1015.69 1015.77 1015.82 1016.00 1016.32 1016.58 1016.67 1016.64 1016.60 1016.71 1016.78 1016.44 1016.55 1017.02 1017.55 1018.19 1018.41 1018.43 1018.63 1018.84 1019.04
1009.15 1009.09 1010.45 1010.61 1011.14 1011.74 1012.31 1012.60 1012.98 1013.26 1013.58 1013.75 1014.03 1014.50 1014.45 1014.57 1014.81 1015.11 1015.35 1015.47 1015.66 1015.73 1015.81 1015.88 1015.87 1016.00 1016.31 1016.58 1016.78 1016.72 1016.64 1016.54 1016.64 1016.34 1016.49 1017.24 1017.87 1018.16 1018.41 1018.62 1018.75 1018.96 1019.16
1007.73 1009.26 1010.80 1011.15 1011.36 1011.84 1012.34 1012.80 1013.16 1013.44 1013.69 1013.91 1014.08 1014.33 1014.73 1014.83 1014.85 1015.08 1015.23 1015.51 1015.70 1015.86 1015.96 1016.01 1015.99 1016.07 1016.35 1016.65 1016.84 1016.82 1016.64 1016.85 1016.57 1016.08 1016.52 1017.13 1017.72 1018.02 1018.42 1018.67 1018.89 1019.08 1019.29
1007.78 1008.47 1009.40 1010.59 1011.73 1012.23 1012.59 1012.86 1013.16 1013.61 1013.80 1014.02 1014.19 1014.25 1014.60 1014.85 1015.02 1015.09 1015.17 1015.39 1015.64 1015.83 1016.00 1016.02 1016.11 1016.22 1016.48 1016.69 1016.86 1016.85 1016.63 1016.79 1016.85 1016.35 1016.35 1017.21 1017.64 1017.79 1018.30 1018.64 1018.87 1019.04 1019.22
1007.34 1008.93 1010.77 1011.25 1011.44 1012.21 1012.61 1012.94 1013.08 1013.49 1013.80 1014.04 1014.21 1014.45 1014.51 1014.71 1014.89 1015.06 1015.22 1015.37 1015.57 1015.83 1015.96 1016.03 1016.18 1016.34 1016.55 1016.71 1016.82 1016.79 1016.63 1016.79 1016.71 1016.18 1016.41 1016.64 1017.26 1017.60 1018.13 1018.53 1018.77 1018.94 1019.08
1008.08 1010.50 1009.62 1011.07 1011.52 1012.12 1012.59 1012.83 1013.05 1013.44 1013.74 1013.93 1014.15 1014.35 1014.50 1014.48 1014.49 1014.75 1014.96 1015.20 1015.42 1015.63 1015.74 1015.92 1016.10 1016.35 1016.57 1016.73 1016.80 1016.76 1016.66 1016.32 1016.03 1016.28 1016.19 1016.87 1017.16 1017.35 1017.88 1018.32 1018.62 1018.79 1018.95
1008.81 1010.68 1010.81 1011.12 1011.56 1012.31 1012.61 1012.68 1012.78 1013.04 1013.38 1013.63 1013.75 1013.99 1014.22 1014.04 1014.32 1014.39 1014.76 1015.04 1015.27 1015.47 1015.64 1015.77 1015.98 1016.26 1016.44 1016.35 1016.56 1016.69 1016.59 1015.89 1016.08 1016.09 1016.67 1016.86 1016.96 1017.14 1017.60 1018.07 1018.39 1018.61 1018.81
1008.82 1009.72 1011.04 1011.35 1011.82 1012.28 1012.43 1012.38 1012.62 1012.86 1013.04 1013.25 1013.40 1013.65 1013.78 1013.79 1013.94 1014.19 1014.64 1014.85 1015.13 1015.26 1015.31 1015.58 1015.88 1016.04 1015.90 1015.91 1015.91 1016.21 1016.14 1015.84 1015.81 1015.71 1016.59 1017.06 1017.04 1016.84 1017.31 1017.80 1018.22 1018.54 1018.70
1008.48 1009.42 1010.55 1011.45 1011.96 1011.94 1012.09 1012.05 1012.28 1012.81 1013.09 1013.25 1013.33 1013.51 1013.71 1013.81 1013.90 1014.08 1014.29 1014.56 1014.79 1014.78 1014.78 1015.03 1015.28 1015.41 1015.40 1015.38 1015.52 1015.80 1015.73 1015.61 1015.76 1015.88 1016.25 1016.30 1016.71 1016.59 1016.94 1017.48 1017.88 1018.23 1018.46
1008.15 1009.26 1010.17 1011.05 1011.72 1012.05 1012.18 1012.14 1012.30 1012.54 1012.86 1012.68 1012.96 1013.26 1013.66 1013.62 1013.94 1013.88 1014.06 1013.92 1014.21 1014.34 1014.70 1014.83 1014.93 1015.20 1015.37 1015.18 1015.28 1015.48 1015.36 1015.14 1015.06 1015.30 1015.86 1016.20 1016.45 1016.33 1016.45 1016.91 1017.38 1017.74 1018.04
1008.09 1009.06 1010.05 1010.88 1011.31 1011.60 1011.97 1012.08 1012.27 1012.29 1012.41 1012.36 1012.53 1012.68 1012.82 1013.19 1013.30 1013.33 1013.75 1013.79 1013.88 1013.94 1014.42 1014.61 1014.80 1015.02 1015.39 1015.16 1015.10 1015.04 1014.97 1014.94 1015.07 1015.00 1015.47 1015.87 1015.94 1016.10 1016.15 1016.34 1016.62 1017.05 1017.41
1007.80 1008.56 1009.70 1010.34 1011.05 1011.41 1011.65 1011.77 1011.94 1011.83 1011.97 1011.95 1012.58 1012.74 1012.81 1012.97 1013.24 1013.20 1013.27 1013.42 1013.46 1013.65 1013.75 1014.10 1014.50 1014.81 1015.27 1015.04 1015.26 1014.98 1014.93 1015.06 1014.94 1014.98 1014.79 1015.47 1015.73 1016.01 1016.32 1016.31 1016.48 1016.50 1016.61
1007.52 1008.29 1009.32 1009.86 1010.69 1011.27 1011.45 1011.65 1011.75 1011.78 1011.98 1011.93 1012.08 1012.41 1012.53 1012.90 1013.11 1013.26 1013.28 1013.24 1012.87 1013.34 1013.55 1014.04 1014.59 1014.92 1015.09 1015.09 1015.10 1014.92 1014.91 1014.79 1014.68 1014.62 1014.79 1014.94 1015.47 1015.74 1016.06 1016.10 1016.32 1016.84 1017.03
1007.64 1008.35 1009.06 1009.85 1010.63 1011.12 1011.37 1011.41 1011.46 1011.22 1011.47 1011.37 1011.52 1011.70 1012.15 1012.46 1012.72 1013.13 1013.22 1012.81 1013.38 1013.53 1013.79 1014.06 1014.36 1014.65 1015.03 1015.12 1014.98 1014.69 1014.73 1014.75 1014.54 1014.46 1014.72 1014.72 1014.85 1015.17 1015.26 1015.47 1016.17 1016.61 1016.49
1007.69 1008.56 1009.26 1009.90 1010.44 1011.00 1011.24 1011.29 1011.42 1011.52 1011.53 1011.38 1011.57 1011.98 1012.21 1012.41 1012.65 1013.20 1013.23 1013.13 1013.48 1014.02 1014.12 1014.39 1014.49 1014.55 1014.55 1014.71 1014.64 1014.50 1014.48 1014.49 1014.35 1014.41 1014.54 1014.54 1014.66 1014.54 1015.03 1015.33 1015.95 1016.02 1016.49
1007.63 1008.47 1009.13 1009.75 1010.35 1010.95 1011.23 1011.18 1011.14 1011.27 1011.27 1011.45 1011.54 1011.79 1012.07 1012.29 1012.47 1013.02 1013.44 1013.62 1013.67 1014.11 1014.08 1014.42 1014.44 1014.53 1014.48 1014.51 1015.11 1014.90 1014.64 1014.28 1014.18 1014.27 1014.38 1014.61 1015.06 1014.58 1015.17 1015.22 1015.45 1015.83 1016.07
1007.71 1008.32 1009.08 1009.45 1010.22 1010.57 1010.74 1011.01 1010.94 1010.95 1010.90 1011.17 1011.51 1011.44 1011.60 1011.83 1012.22 1012.58 1013.15 1013.52 1013.77 1013.91 1014.21 1014.39 1014.47 1014.48 1014.52 1014.64 1014.97 1014.95 1014.77 1014.41 1014.07 1014.29 1014.33 1014.89 1014.81 1014.90 1015.12 1014.91 1015.19 1014.92 1015.05
1007.46 1008.17 1008.87 1009.26 1009.85 1010.18 1010.16 1010.70 1011.15 1011.37 1011.42 1011.47 1011.46 1011.39 1011.53 1011.63 1011.96 1012.34 1012.51 1013.03 1013.59 1013.93 1014.15 1014.25 1014.41 1014.68 1014.74 1014.47 1014.63 1014.84 1014.96 1014.88 1014.78 1014.62 1014.91 1015.00 1015.00 1015.09 1015.15 1015.40 1014.79 1014.51 1014.47
1007.00 1007.80 1008.50 1009.00 1009.47 1009.75 1009.93 1010.28 1010.71 1011.06 1011.27 1011.20 1011.14 1011.31 1011.46 1011.47 1011.78 1012.12 1012.34 1012.84 1013.40 1013.68 1013.96 1014.15 1014.31 1014.53 1014.58 1014.52 1014.49 1014.48 1014.69 1015.02 1015.28 1015.41 1015.64 1015.98 1015.20 1015.38 1015.70 1015.59 1015.23 1015.07 1014.84
1006.41 1007.24 1008.08 1008.65 1008.95 1009.14 1009.62 1010.09 1010.16 1010.55 1010.69 1010.79 1011.20 1011.35 1011.38 1011.65 1011.72 1011.98 1012.44 1012.77 1013.04 1013.39 1013.64 1013.76 1013.84 1013.87 1013.95 1014.11 1014.17 1014.42 1014.67 1015.08 1015.41 1015.94 1016.16 1015.94 1015.59 1015.44 1016.01 1015.97 1015.56 1015.30 1015.07
1005.95 1006.66 1007.55 1008.46 1008.90 1009.06 1009.40 1009.90 1010.08 1010.35 1010.47 1010.68 1011.20 1011.32 1011.15 1011.50 1011.86 1012.02 1012.30 1012.71 1012.99 1013.17 1013.30 1013.40 1013.41 1013.45 1013.66 1013.72 1013.85 1014.22 1014.47 1014.77 1015.04 1015.35 1015.48 1015.31 1015.45 1016.02 1016.44 1016.46 1016.19 1015.80 1015.65
Thickness
5795 5790 5786 5783 5779 5774 5771 5768 5766 5764 5761 5761 5759 5758 5758 5758 5759 5760 5759 5759 5759 5759 5761 5761 5758 5758 5758 5757 5757 5758 5758 5757 5758 5757 5756 5755 5754 5754 5754 5753 5753 5751 5749
5800 5791 5785 5781 5777 5775 5772 5769 5767 5764 5762 5760 5759 5758 5757 5757 5756 5757 5756 5757 5758 5759 5760 5761 5758 5758 5758 5757 5757 5757 5758 5758 5758 5757 5756 5755 5754 5754 5754 5756 5753 5751 5749
5800 5789 5783 5779 5777 5773 5770 5768 5766 5763 5761 5759 5758 5757 5756 5755 5755 5755 5755 5756 5758 5759 5760 5759 5759 5757 5757 5758 5757 5757 5757 5759 5758 5757 5759 5759 5754 5753 5754 5754 5752 5752 5751
5799 5790 5782 5776 5774 5771 5769 5767 5766 5763 5760 5757 5757 5756 5754 5754 5754 5753 5754 5755 5757 5759 5759 5758 5758 5758 5758 5758 5757 5758 5758 5760 5759 5759 5759 5762 5759 5754 5753 5753 5753 5751 5750
5803 5792 5779 5777 5773 5768 5767 5767 5765 5763 5760 5757 5755 5755 5754 5754 5754 5754 5754 5755 5757 5757 5758 5758 5758 5759 5758 5758 5758 5759 5760 5762 5761 5760 5762 5764 5758 5754 5753 5753 5752 5751 5751
5784 5797 5778 5776 5773 5768 5764 5763 5762 5761 5760 5757 5755 5754 5754 5755 5754 5754 5752 5755 5755 5756 5758 5758 5759 5761 5760 5759 5759 5760 5761 5762 5762 5766 5766 5763 5760 5754 5753 5753 5752 5752 5750
5796 5789 5776 5777 5773 5769 5764 5761 5758 5758 5757 5756 5755 5753 5755 5755 5754 5754 5753 5754 5754 5755 5757 5759 5761 5762 5761 5761 5760 5761 5763 5765 5765 5767 5767 5762 5758 5756 5755 5754 5753 5752 5751
5803 5787 5771 5769 5769 5767 5764 5759 5757 5756 5756 5754 5755 5754 5753 5754 5755 5755 5755 5754 5754 5755 5756 5759 5761 5763 5762 5761 5760 5761 5764 5763 5766 5771 5768 5765 5761 5759 5756 5755 5753 5752 5751
5808 5797 5785 5770 5760 5759 5760 5759 5758 5755 5755 5754 5753 5755 5755 5754 5755 5755 5756 5757 5756 5756 5757 5758 5761 5762 5762 5761 5761 5761 5765 5765 5765 5770 5770 5765 5763 5762 5759 5757 5755 5754 5753
5807 5783 5749 5756 5760 5756 5758 5759 5758 5756 5755 5754 5753 5753 5755 5756 5756 5757 5756 5757 5757 5757 5758 5759 5760 5761 5762 5761 5761 5762 5765 5765 5767 5771 5772 5770 5766 5764 5760 5758 5757 5756 5755
5804 5771 5762 5762 5762 5756 5756 5759 5759 5757 5755 5754 5754 5754 5754 5757 5759 5759 5760 5759 5759 5759 5760 5760 5760 5761 5761 5761 5761 5763 5765 5769 5772 5772 5774 5770 5767 5766 5763 5761 5759 5758 5757
5794 5780 5776 5770 5765 5754 5754 5760 5761 5761 5758 5757 5757 5757 5757 5760 5760 5761 5760 5760 5760 5760 5761 5762 5761 5761 5762 5764 5764 5764 5766 5772 5772 5773 5771 5771 5770 5769 5766 5763 5762 5760 5759
5796 5789 5777 5773 5763 5756 5759 5763 5763 5762 5762 5761 5760 5760 5761 5762 5763 5763 5761 5761 5761 5762 5764 5764 5762 5762 5765 5767 5770 5768 5770 5772 5773 5775 5770 5767 5768 5771 5768 5764 5761 5760 5758
5803 5794 5785 5773 5766 5764 5764 5766 5766 5762 5761 5761 5761 5761 5762 5762 5763 5763 5764 5763 5763 5765 5768 5768 5768 5767 5769 5771 5772 5771 5772 5775 5775 5773 5772 5773 5770 5771 5770 5765 5762 5759 5758
5808 5798 5789 5782 5774 5769 5767 5765 5765 5763 5762 5764 5765 5764 5762 5763 5762 5763 5764 5767 5767 5766 5767 5768 5768 5768 5768 5771 5773 5772 5775 5777 5778 5777 5773 5771 5770 5772 5772 5768 5764 5760 5757
5811 5801 5794 5785 5779 5771 5768 5767 5766 5766 5764 5767 5767 5768 5767 5765 5766 5767 5766 5767 5766 5768 5766 5766 5767 5768 5767 5770 5772 5774 5775 5777 5776 5777 5775 5772 5773 5772 5771 5769 5766 5761 5756
5813 5808 5798 5791 5784 5778 5773 5771 5767 5768 5767 5769 5766 5751 5766 5765 5764 5766 5769 5769 5768 5769 5768 5768 5767 5764 5764 5768 5768 5771 5773 5773 5774 5775 5777 5773 5771 5769 5766 5766 5763 5765 5764
5818 5811 5804 5798 5788 5780 5776 5772 5769 5767 5766 5767 5767 5765 5764 5762 5761 5763 5765 5767 5771 5769 5768 5767 5764 5761 5762 5764 5765 5769 5771 5772 5773 5774 5773 5773 5769 5765 5764 5763 5761 5754 5754
5820 5811 5803 5797 5788 5781 5777 5774 5771 5770 5768 5769 5767 5768 5764 5762 5762 5759 5762 5766 5764 5764 5765 5765 5764 5762 5758 5759 5762 5767 5769 5771 5772 5771 5770 5771 5768 5766 5764 5762 5756 5757 5747
5822 5812 5803 5796 5789 5783 5778 5775 5771 5767 5766 5767 5766 5761 5759 5758 5758 5755 5757 5760 5759 5758 5759 5759 5759 5761 5762 5760 5762 5765 5767 5768 5771 5770 5770 5767 5769 5768 5765 5765 5757 5755 5751
5821 5811 5803 5795 5788 5781 5775 5772 5771 5765 5766 5765 5764 5761 5758 5754 5754 5752 5752 5754 5755 5754 5756 5756 5756 5756 5757 5760 5752 5755 5760 5765 5768 5768 5769 5764 5762 5766 5761 5759 5761 5753 5752
5816 5810 5802 5797 5789 5783 5780 5775 5773 5770 5770 5766 5763 5761 5759 5757 5752 5749 5750 5750 5750 5751 5752 5753 5752 5752 5754 5756 5748 5748 5743 5752 5761 5764 5765 5757 5761 5757 5754 5756 5755 5758 5754
5816 5809 5801 5796 5791 5786 5785 5779 5770 5765 5761 5757 5757 5758 5756 5755 5753 5749 5746 5748 5748 5749 5747 5749 5749 5747 5744 5751 5752 5745 5735 5734 5745 5755 5753 5753 5750 5750 5750 5746 5753 5756 5757
5818 5812 5803 5797 5792 5789 5786 5778 5769 5760 5754 5755 5756 5755 5754 5754 5751 5749 5746 5745 5745 5746 5745 5745 5747 5745 5745 5743 5747 5748 5747 5744 5735 5733 5741 5737 5743 5745 5744 5746 5747 5747 5748
5824 5814 5804 5799 5796 5793 5787 5779 5774 5767 5763 5760 5754 5751 5750 5750 5748 5747 5745 5743 5743 5743 5743 5744 5745 5746 5746 5744 5744 5743 5742 5740 5738 5730 5725 5729 5739 5739 5738 5738 5741 5743 5745
5825 5818 5810 5799 5794 5793 5788 5780 5774 5767 5763 5758 5750 5746 5749 5747 5745 5746 5743 5741 5740 5740 5741 5742 5744 5745 5744 5744 5744 5740 5738 5734 5733 5728 5727 5734 5734 5731 5730 5730 5733 5734 5735